Погода в Бежецке

Россия / Тверская область     57°47′08″N   36°41′37″E
темп.,
°C
ветер,
м/с
пор.,
м/с
влажн.,
%
обл.,
%
осадки,
мм/ч
давл.,
гПа
погр.,
м
4 августа, ср
ср400:00+13зюз411840 0.0 1010232
03:00+11зюз38920 0.0 1012170
06:00+11з39890 0.0 1013274
09:00+17зсз46550 0.0 1014996
12:00+21з574091 0.0 10152252
15:00+21зсз464099 0.0 10152290
18:00+19зсз244591 0.0 1015704
21:00+16з1153100 0.0 101611
5 августа, чт
чт500:00+15з1156100 0.0 101711
03:00+15с225899 0.0 101727
06:00+15в225684 0.0 101767
09:00+18вюв344987 0.0 1017406
12:00+22вюв3444100 0.1 10161836
15:00+21ююз4449100 0.3 10151180
18:00+14в2396100 4.4 1015126
21:00+14вюв4898100 7.9 1014320
6 августа, пт
пт600:00+14юв51096100 0.5 1013384
03:00+14юв389799 2.8 1013317
06:00+14юв2597100 0.5 1012242
09:00+15вюв3594100 3.6 1013349
12:00+19вюв237899 0.1 1013852
15:00+21ююв227099 0.6 1012915
18:00+19ююв3587100 1.6 1012301
21:00+16юв3598100 2.5 1013149
7 августа, сб
сб700:00+15вюв4898100 0.0 1014231
03:00+15в4898100 0.1 1014255
06:00+15в51198100 5.7 1014406
09:00+15в51098100 8.6 1013383
12:00+16в51096100 0.4 1013521
15:00+20в71080100 0.6 1013844
18:00+19в61291100 2.9 1012443
21:00+17в71496100 6.7 1012356
8 августа, вс
вс800:00+18вюв51196100 8.4 1012384
03:00+17вюв5997100 15.3 1013267
06:00+16вюв4798100 0.8 1013186
09:00+19ю3596100 0.8 1014293
12:00+22юз357999 0.1 1014795
15:00+27юз355981 0.1 10141465
18:00+24з4672100 0.1 1014339
21:00+19зюз118883 3.9 101611